FW0069 Weather Reports


Display with metric or nautical units.
time (UTC)temp
F
wind
direction
speed
MPH
gust
MPH
rain 1hr
in
rain 24hr
in
rain mn
in
humidity
%
barometer
mb
20200328184523 64 329 2.0 4.0 0.00 0.00 0.00 27 1020.8
20200328184022 63 119 2.0 4.0 0.00 0.00 0.00 28 1020.7
20200328183523 63 265 1.0 6.0 0.00 0.00 0.00 28 1020.8
20200328183023 64 342 1.0 6.0 0.00 0.00 0.00 28 1021.1
20200328182523 63 320 3.0 6.0 0.00 0.00 0.00 28 1020.9
20200328182022 63 360 3.0 5.0 0.00 0.00 0.00 28 1020.9
20200328181522 63 59 1.0 5.0 0.00 0.00 0.00 29 1020.9
20200328181022 63 49 3.0 4.0 0.00 0.00 0.00 28 1020.9
20200328180522 62 24 2.0 3.0 0.00 0.00 0.00 29 1020.9
20200328180022 61 18 2.0 4.0 0.00 0.00 0.00 28 1020.9
20200328175522 61 350 2.0 5.0 0.00 0.00 0.00 29 1021.1
20200328175026 61 329 1.0 5.0 0.00 0.00 0.00 30 1021.1
20200328174522 60 332 0.0 7.0 0.00 0.00 0.00 29 1020.9
20200328174022 61 333 2.0 7.0 0.00 0.00 0.00 29 1021.0
20200328173523 60 266 3.0 5.0 0.00 0.00 0.00 31 1020.9
20200328173022 60 345 1.0 5.0 0.00 0.00 0.00 31 1020.9
20200328172523 59 325 4.0 5.0 0.00 0.00 0.00 31 1020.7
20200328172023 58 195 0.0 3.0 0.00 0.00 0.00 34 1020.5
20200328171522 57 138 1.0 3.0 0.00 0.00 0.00 33 1020.5
20200328171023 56 133 2.0 3.0 0.00 0.00 0.00 33 1020.4
20200328170523 57 268 1.0 3.0 0.00 0.00 0.00 34 1020.6
20200328170022 56 268 2.0 4.0 0.00 0.00 0.00 34 1020.4
20200328165523 56 267 2.0 4.0 0.00 0.00 0.00 33 1020.4
20200328165022 56 267 3.0 3.0 0.00 0.00 0.00 33 1020.3
20200328164523 56 267 1.0 2.0 0.00 0.00 0.00 35 1020.3
20200328164023 55 267 0.0 2.0 0.00 0.00 0.00 36 1020.4
20200328163522 54 267 1.0 2.0 0.00 0.00 0.00 35 1020.2
20200328162523 53 267 1.0 4.0 0.00 0.00 0.00 37 1020.1
20200328162022 53 267 1.0 3.0 0.00 0.00 0.00 37 1020.1
20200328161522 53 267 1.0 3.0 0.00 0.00 0.00 38 1020.1
20200328161022 52 268 1.0 3.0 0.00 0.00 0.00 37 1019.9
20200328160522 52 271 1.0 3.0 0.00 0.00 0.00 39 1019.9
20200328160022 52 269 2.0 3.0 0.00 0.00 0.00 38 1019.9
20200328155522 52 268 0.0 3.0 0.00 0.00 0.00 40 1019.7
20200328155022 51 268 0.0 4.0 0.00 0.00 0.00 40 1019.7
20200328154522 51 268 0.0 4.0 0.00 0.00 0.00 40 1019.8
20200328154022 50 269 1.0 3.0 0.00 0.00 0.00 40 1019.6
20200328153522 50 269 0.0 3.0 0.00 0.00 0.00 41 1019.6
20200328153022 49 269 1.0 3.0 0.00 0.00 0.00 42 1019.5
20200328152522 49 269 2.0 3.0 0.00 0.00 0.00 43 1019.4
20200328152022 49 269 0.0 3.0 0.00 0.00 0.00 43 1019.4
20200328151522 49 269 2.0 3.0 0.00 0.00 0.00 44 1019.4
20200328151022 48 268 2.0 3.0 0.00 0.00 0.00 44 1019.2
20200328150522 48 268 2.0 3.0 0.00 0.00 0.00 43 1019.0
20200328150022 48 269 1.0 2.0 0.00 0.00 0.00 44 1019.0
20200328145522 48 268 1.0 2.0 0.00 0.00 0.00 43 1019.3
20200328145023 48 269 0.0 2.0 0.00 0.00 0.00 43 1019.3
20200328144522 47 269 1.0 2.0 0.00 0.00 0.00 44 1019.0
20200328144022 46 277 0.0 2.0 0.00 0.00 0.00 46 1018.9
20200328143522 46 267 0.0 0.0 0.00 0.00 0.00 47 1018.9
20200328143022 45 270 0.0 0.0 0.00 0.00 0.00 47 1018.7
20200328142526 46 269 0.0 1.0 0.00 0.00 0.00 46 1018.8
20200328142023 46 269 0.0 1.0 0.00 0.00 0.00 44 1018.8
20200328141523 46 269 1.0 1.0 0.00 0.00 0.00 43 1018.8
20200328141022 47 269 0.0 1.0 0.00 0.00 0.00 42 1018.9
20200328140522 47 269 0.0 1.0 0.00 0.00 0.00 41 1018.9
20200328140022 47 269 0.0 1.0 0.00 0.00 0.00 41 1018.8
20200328135522 47 269 1.0 1.0 0.00 0.00 0.00 41 1019.3
20200328135022 47 267 0.0 1.0 0.00 0.00 0.00 41 1019.2
20200328134523 47 267 0.0 1.0 0.00 0.00 0.00 41 1019.1
20200328134022 46 267 0.0 1.0 0.00 0.00 0.00 42 1018.7
20200328133522 45 268 0.0 1.0 0.00 0.00 0.00 44 1018.5
20200328133022 44 267 0.0 0.0 0.00 0.00 0.00 46 1018.3
20200328132522 44 267 0.0 0.0 0.00 0.00 0.00 46 1018.3
20200328132023 44 267 0.0 0.0 0.00 0.00 0.00 46 1018.2
20200328131523 43 267 0.0 0.0 0.00 0.00 0.00 49 1018.3
20200328131023 43 267 0.0 0.0 0.00 0.00 0.00 50 1018.2
20200328130522 43 267 0.0 0.0 0.00 0.00 0.00 49 1018.1
20200328130022 44 267 0.0 1.0 0.00 0.00 0.00 48 1018.1
20200328125522 45 267 0.0 1.0 0.00 0.00 0.00 45 1018.3
20200328125022 45 267 0.0 0.0 0.00 0.00 0.00 43 1018.3
20200328124523 46 267 0.0 1.0 0.00 0.00 0.00 44 1018.4
20200328124022 46 267 0.0 1.0 0.00 0.00 0.00 43 1018.3
20200328123522 46 267 1.0 1.0 0.00 0.00 0.00 42 1018.2
20200328123022 46 267 1.0 1.0 0.00 0.01 0.00 43 1018.3
20200328122543 46 267 0.0 1.0 0.00 0.01 0.00 43 1018.3
20200328122036 46 267 0.0 1.0 0.00 0.01 0.00 42 1018.2
20200328121522 47 267 1.0 1.0 0.00 0.01 0.00 41 1018.2
20200328121022 46 267 0.0 1.0 0.00 0.01 0.00 41 1018.1
20200328120523 47 267 0.0 1.0 0.00 0.01 0.00 41 1018.0
20200328120022 47 267 0.0 1.0 0.00 0.01 0.00 40 1018.0
20200328115522 47 267 0.0 1.0 0.00 0.01 0.00 40 1018.4
20200328115022 47 267 1.0 1.0 0.00 0.01 0.00 40 1018.4
20200328114522 47 267 0.0 1.0 0.00 0.01 0.00 40 1018.5
20200328114023 47 267 0.0 1.0 0.00 0.01 0.00 40 1018.6
20200328113526 47 268 0.0 1.0 0.00 0.01 0.00 40 1018.7
20200328113023 47 268 0.0 1.0 0.00 0.01 0.00 40 1018.7
20200328112523 47 268 0.0 1.0 0.00 0.01 0.00 40 1018.7
20200328112023 47 268 0.0 1.0 0.00 0.01 0.00 40 1018.8
20200328111522 48 267 1.0 2.0 0.00 0.01 0.00 39 1018.7
20200328111023 48 267 0.0 2.0 0.00 0.01 0.00 38 1018.6
20200328110522 48 267 1.0 2.0 0.00 0.01 0.00 38 1018.4
20200328110053 48 267 1.0 2.0 0.00 0.01 0.00 38 1018.3
20200328105522 48 267 1.0 2.0 0.00 0.01 0.00 38 1018.3
20200328105022 49 267 0.0 1.0 0.00 0.01 0.00 37 1018.3
20200328104522 49 267 0.0 1.0 0.00 0.01 0.00 36 1018.3
20200328104026 49 267 0.0 3.0 0.00 0.01 0.00 36 1018.3
20200328103523 49 267 0.0 3.0 0.00 0.01 0.00 36 1018.3
20200328103023 49 267 1.0 2.0 0.00 0.01 0.00 35 1018.3
20200328102523 49 268 1.0 1.0 0.00 0.01 0.00 35 1018.2
20200328102022 49 268 0.0 2.0 0.00 0.01 0.00 35 1018.5
20200328101522 49 268 0.0 4.0 0.00 0.01 0.00 35 1018.4
20200328101023 49 269 1.0 4.0 0.00 0.01 0.00 35 1018.3
20200328100523 49 269 1.0 2.0 0.00 0.01 0.00 34 1018.3
20200328100023 49 185 0.0 2.0 0.00 0.01 0.00 35 1018.4
20200328095522 49 184 0.0 3.0 0.00 0.01 0.00 35 1018.3
20200328095023 49 184 0.0 3.0 0.00 0.01 0.00 34 1018.3
20200328094523 49 191 1.0 3.0 0.00 0.01 0.00 34 1018.4
20200328094022 49 186 0.0 2.0 0.00 0.01 0.00 34 1018.4
20200328093523 49 165 1.0 1.0 0.00 0.01 0.00 34 1018.3
20200328092525 49 165 1.0 2.0 0.00 0.01 0.00 33 1018.3
20200328092025 49 163 0.0 1.0 0.00 0.01 0.00 32 1018.2
20200328091022 50 157 0.0 3.0 0.00 0.01 0.00 31 1018.3
20200328090522 50 167 0.0 1.0 0.00 0.01 0.00 31 1018.3
20200328090024 50 166 1.0 2.0 0.00 0.01 0.00 30 1018.4
20200328085522 50 170 0.0 3.0 0.00 0.01 0.00 30 1018.5
20200328085022 50 170 1.0 3.0 0.00 0.01 0.00 29 1018.5
20200328084523 50 236 0.0 4.0 0.00 0.01 0.00 29 1018.6
20200328084022 50 236 1.0 4.0 0.00 0.01 0.00 28 1018.6
20200328083522 50 138 1.0 2.0 0.00 0.01 0.00 28 1018.7
20200328083022 50 138 1.0 2.0 0.00 0.01 0.00 28 1018.6
20200328082523 50 137 1.0 2.0 0.00 0.01 0.00 28 1018.6
20200328082022 50 136 1.0 2.0 0.00 0.01 0.00 28 1018.4
20200328081522 50 136 0.0 3.0 0.00 0.01 0.00 28 1018.5
20200328081023 50 123 0.0 3.0 0.00 0.01 0.00 28 1018.3
20200328080522 50 143 1.0 2.0 0.00 0.01 0.00 28 1018.4
20200328080026 50 184 1.0 2.0 0.00 0.01 0.00 28 1018.3
20200328075522 50 142 0.0 0.0 0.00 0.01 0.00 28 1018.5
20200328075022 50 142 0.0 1.0 0.00 0.01 0.00 28 1018.5
20200328074523 50 141 0.0 2.0 0.00 0.01 0.00 28 1018.4
20200328074023 50 141 1.0 2.0 0.00 0.01 0.00 28 1018.3
20200328073522 50 142 0.0 2.0 0.00 0.01 0.00 28 1018.3
20200328073023 51 142 0.0 2.0 0.00 0.01 0.00 28 1018.5
20200328072523 50 145 1.0 2.0 0.00 0.01 0.00 28 1018.2
20200328072023 50 145 0.0 2.0 0.00 0.01 0.00 28 1018.2
20200328071523 50 144 1.0 2.0 0.00 0.01 0.00 28 1018.2
20200328071022 50 142 1.0 2.0 0.00 0.01 0.00 28 1018.3
20200328070522 50 146 0.0 1.0 0.00 0.01 0.00 28 1018.3
20200328070022 51 146 1.0 2.0 0.00 0.01 0.00 28 1018.4
20200328065523 51 145 0.0 2.0 0.00 0.01 0.01 28 1018.2
20200328065022 51 134 0.0 2.0 0.00 0.01 0.01 28 1018.2
20200328064522 51 157 1.0 2.0 0.00 0.01 0.01 28 1018.1
20200328064023 51 154 0.0 2.0 0.00 0.01 0.01 28 1018.1
20200328063522 51 154 0.0 2.0 0.00 0.01 0.01 28 1018.1
20200328063022 51 183 0.0 2.0 0.00 0.01 0.01 28 1018.0
20200328062522 51 196 0.0 2.0 0.00 0.01 0.01 27 1018.0
20200328062022 51 196 0.0 2.0 0.00 0.01 0.01 28 1017.9
20200328061524 51 193 1.0 2.0 0.00 0.01 0.01 28 1017.9
20200328061022 51 192 1.0 1.0 0.00 0.01 0.01 28 1018.1
20200328060522 51 192 0.0 1.0 0.00 0.01 0.01 28 1018.1
20200328060023 51 192 0.0 1.0 0.00 0.01 0.01 28 1018.0
20200328055522 51 193 0.0 3.0 0.00 0.01 0.01 27 1017.5
20200328055023 51 193 1.0 7.0 0.00 0.01 0.01 27 1017.5
20200328054523 51 184 1.0 7.0 0.00 0.01 0.01 27 1017.4
20200328054023 51 180 0.0 3.0 0.00 0.01 0.01 27 1017.5
20200328053523 51 179 1.0 3.0 0.00 0.01 0.01 27 1017.5
20200328053022 50 247 1.0 2.0 0.00 0.01 0.01 28 1017.3
20200328052522 50 247 0.0 1.0 0.00 0.01 0.01 29 1017.3
20200328052022 51 247 0.0 1.0 0.00 0.01 0.01 29 1017.4
20200328051522 51 247 0.0 2.0 0.00 0.01 0.01 29 1017.4
20200328051022 51 247 0.0 2.0 0.00 0.01 0.01 28 1017.4
20200328050522 51 247 1.0 2.0 0.00 0.01 0.01 28 1017.3
20200328050023 51 247 0.0 2.0 0.00 0.01 0.01 28 1017.1
20200328045522 51 247 0.0 1.0 0.00 0.01 0.01 29 1016.6
20200328045023 51 247 0.0 1.0 0.00 0.01 0.01 29 1016.6
20200328044523 51 247 0.0 1.0 0.00 0.01 0.01 29 1016.6
20200328044023 51 247 0.0 1.0 0.00 0.01 0.01 28 1016.6
20200328043522 51 247 0.0 1.0 0.00 0.01 0.01 29 1016.6
20200328043023 51 247 0.0 1.0 0.00 0.01 0.01 28 1016.7
20200328042523 51 247 0.0 1.0 0.00 0.01 0.01 29 1016.6
20200328042022 51 247 1.0 1.0 0.00 0.01 0.01 29 1016.5
20200328041522 51 247 0.0 1.0 0.00 0.01 0.01 29 1016.5
20200328041023 51 247 0.0 1.0 0.00 0.01 0.01 29 1016.5
20200328040524 52 247 0.0 1.0 0.00 0.01 0.01 29 1016.5
20200328040023 52 247 0.0 1.0 0.00 0.01 0.01 29 1016.3
20200328035522 51 247 0.0 2.0 0.00 0.01 0.01 30 1015.9
20200328035022 51 247 0.0 2.0 0.00 0.01 0.01 30 1015.9
20200328034522 52 247 0.0 1.0 0.00 0.01 0.01 30 1015.9
20200328034023 52 247 0.0 1.0 0.00 0.01 0.01 30 1015.9
20200328033523 52 247 0.0 1.0 0.00 0.01 0.01 30 1015.7
20200328033022 52 247 0.0 2.0 0.00 0.01 0.01 29 1015.7
20200328032522 53 247 0.0 2.0 0.00 0.01 0.01 28 1015.9
20200328032022 53 247 0.0 2.0 0.00 0.01 0.01 28 1015.9
20200328031522 53 248 0.0 1.0 0.00 0.01 0.01 28 1015.8
20200328031023 54 248 1.0 1.0 0.00 0.01 0.01 27 1015.6
20200328030522 54 249 0.0 1.0 0.00 0.01 0.01 27 1015.6
20200328030022 54 248 0.0 1.0 0.00 0.01 0.01 26 1015.4
20200328025523 55 247 0.0 4.0 0.00 0.01 0.01 25 1015.2
20200328025023 55 248 1.0 5.0 0.00 0.01 0.01 25 1015.1
20200328024522 55 248 1.0 5.0 0.00 0.01 0.01 26 1015.0
20200328024022 55 242 1.0 2.0 0.00 0.01 0.01 26 1015.0
20200328023522 55 242 1.0 2.0 0.00 0.01 0.01 27 1014.8
20200328023023 55 243 0.0 1.0 0.00 0.01 0.01 27 1014.7
20200328022522 55 243 0.0 1.0 0.00 0.01 0.01 26 1014.7
20200328022022 56 242 0.0 1.0 0.00 0.01 0.01 26 1014.6
20200328021522 55 242 0.0 1.0 0.00 0.01 0.01 26 1014.6
20200328021022 56 242 1.0 1.0 0.00 0.01 0.01 26 1014.6
20200328020523 56 241 0.0 2.0 0.00 0.01 0.01 25 1014.5
20200328020023 57 246 0.0 5.0 0.00 0.01 0.01 24 1014.6
20200328015522 57 247 1.0 5.0 0.00 0.01 0.01 23 1014.1
20200328015022 58 244 2.0 5.0 0.00 0.01 0.01 22 1014.3
20200328014524 58 256 1.0 5.0 0.00 0.01 0.01 23 1014.3
20200328014022 58 251 4.0 6.0 0.00 0.01 0.01 23 1014.2
20200328013522 58 242 2.0 7.0 0.00 0.01 0.01 22 1014.1
20200328013023 59 256 3.0 7.0 0.00 0.01 0.01 22 1014.1
20200328012522 59 272 3.0 7.0 0.00 0.01 0.01 22 1014.1
20200328012023 59 215 2.0 7.0 0.00 0.01 0.01 21 1014.1
20200328011522 59 261 2.0 7.0 0.00 0.01 0.01 22 1014.0
20200328011023 58 261 1.0 3.0 0.00 0.01 0.01 22 1014.0
20200328010523 58 261 3.0 3.0 0.00 0.01 0.01 23 1014.0
20200328010023 58 261 0.0 3.0 0.00 0.01 0.01 21 1013.9
20200328005523 59 261 0.0 3.0 0.00 0.01 0.01 22 1013.9
20200328005022 59 261 2.0 4.0 0.00 0.01 0.01 21 1013.8
20200328004523 60 261 1.0 4.0 0.00 0.01 0.01 20 1013.9
20200328004023 60 261 2.0 4.0 0.00 0.01 0.01 21 1013.9
20200328003522 60 246 2.0 5.0 0.00 0.01 0.01 21 1014.0
20200328003023 60 246 1.0 5.0 0.00 0.01 0.01 20 1013.9
20200328002523 60 346 1.0 7.0 0.00 0.01 0.01 21 1013.9
20200328002023 61 331 3.0 7.0 0.00 0.01 0.01 21 1013.8
20200328001524 60 264 3.0 5.0 0.00 0.01 0.01 20 1013.8
20200328001025 61 313 2.0 6.0 0.00 0.01 0.01 21 1013.9
20200328000525 61 330 3.0 8.0 0.00 0.01 0.01 20 1013.9
20200328000023 61 310 4.0 8.0 0.00 0.01 0.01 20 1013.8
20200327235522 61 291 4.0 6.0 0.00 0.01 0.01 21 1013.9
20200327235025 61 280 2.0 7.0 0.00 0.01 0.01 22 1013.9
20200327234522 60 259 2.0 9.0 0.00 0.01 0.01 22 1013.9
20200327234023 61 254 7.0 9.0 0.00 0.01 0.01 21 1013.9
20200327233523 61 261 4.0 6.0 0.00 0.01 0.01 22 1013.8
20200327233022 61 252 4.0 7.0 0.00 0.01 0.01 22 1013.8
20200327232522 63 238 1.0 7.0 0.00 0.01 0.01 21 1014.0
20200327232023 61 262 2.0 6.0 0.00 0.01 0.01 21 1013.7
20200327231523 63 229 0.0 6.0 0.00 0.01 0.01 20 1013.9
20200327231022 61 234 2.0 5.0 0.00 0.01 0.01 23 1013.7
20200327230523 60 219 1.0 4.0 0.00 0.01 0.01 22 1013.6
20200327230022 60 243 1.0 5.0 0.00 0.01 0.01 21 1013.6
20200327225523 60 265 1.0 7.0 0.00 0.01 0.01 20 1013.6
20200327225022 64 271 5.0 11.0 0.00 0.01 0.01 20 1014.1
20200327224522 65 275 4.0 11.0 0.00 0.01 0.01 20 1014.2
20200327224022 64 276 10.0 11.0 0.00 0.01 0.01 21 1014.0
20200327223522 63 248 4.0 7.0 0.00 0.01 0.01 19 1013.8
20200327223022 62 125 1.0 7.0 0.00 0.01 0.01 20 1013.9
20200327222523 63 334 3.0 8.0 0.00 0.01 0.01 19 1014.0
20200327222023 63 287 1.0 8.0 0.00 0.01 0.01 21 1013.9
20200327221522 60 150 2.0 9.0 0.00 0.01 0.01 25 1013.6
20200327221023 63 233 4.0 9.0 0.00 0.01 0.01 21 1014.0
20200327220523 61 242 2.0 6.0 0.00 0.01 0.01 23 1013.9
20200327220023 60 232 2.0 9.0 0.00 0.01 0.01 24 1013.6
20200327215522 60 228 0.0 9.0 0.00 0.01 0.01 24 1013.7
20200327215022 62 203 3.0 8.0 0.00 0.01 0.01 23 1014.0
20200327214522 59 232 2.0 7.0 0.00 0.01 0.01 25 1013.8
20200327214023 60 232 0.0 14.0 0.00 0.01 0.01 24 1013.8
20200327213522 61 247 5.0 14.0 0.00 0.01 0.01 25 1014.1
20200327213023 62 213 2.0 7.0 0.00 0.01 0.01 25 1014.1
20200327212522 59 279 5.0 12.0 0.00 0.01 0.01 26 1014.0
20200327212022 60 262 4.0 12.0 0.00 0.01 0.01 26 1013.9
20200327211523 60 274 7.0 9.0 0.00 0.01 0.01 26 1014.0
20200327211022 63 247 1.0 14.0 0.00 0.01 0.01 26 1014.5
20200327210522 62 274 5.0 14.0 0.00 0.01 0.01 27 1014.3
20200327210022 61 277 3.0 13.0 0.00 0.01 0.01 27 1014.2
20200327205522 62 254 5.0 10.0 0.00 0.01 0.01 24 1014.5
20200327205022 63 296 3.0 11.0 0.00 0.01 0.01 25 1014.5
20200327204522 61 329 4.0 11.0 0.00 0.01 0.01 26 1014.3
20200327204022 60 252 2.0 13.0 0.00 0.01 0.01 26 1014.2
20200327203522 62 348 1.0 14.0 0.00 0.01 0.01 26 1014.5
20200327203023 63 287 6.0 16.0 0.00 0.01 0.01 26 1014.3
20200327202522 65 281 3.0 16.0 0.00 0.01 0.01 25 1014.5
20200327202023 65 294 3.0 18.0 0.00 0.01 0.01 24 1014.3
20200327201522 65 299 2.0 18.0 0.00 0.01 0.01 20 1014.2
20200327201023 65 287 4.0 8.0 0.00 0.01 0.01 21 1014.2
20200327200522 64 264 4.0 10.0 0.00 0.01 0.01 19 1014.0
20200327200024 63 348 3.0 10.0 0.00 0.01 0.01 18 1014.0
20200327195522 62 327 5.0 11.0 0.00 0.01 0.01 21 1013.9
20200327195023 61 273 6.0 11.0 0.00 0.01 0.01 19 1013.9
20200327194523 62 355 3.0 10.0 0.00 0.01 0.01 20 1014.0
20200327194022 62 89 2.0 8.0 0.00 0.01 0.01 22 1013.9
20200327193522 62 302 4.0 9.0 0.00 0.01 0.01 22 1013.9
20200327193022 62 355 5.0 9.0 0.00 0.01 0.01 23 1014.0
20200327192522 62 38 1.0 9.0 0.00 0.01 0.01 24 1014.1
20200327192022 62 333 4.0 8.0 0.00 0.01 0.01 23 1014.2
20200327191522 61 69 3.0 9.0 0.00 0.01 0.01 26 1013.9
20200327191023 61 53 4.0 9.0 0.00 0.01 0.01 26 1014.0
20200327190522 61 299 4.0 8.0 0.00 0.01 0.01 26 1014.0
20200327190022 61 261 2.0 7.0 0.00 0.01 0.01 28 1013.9
20200327185522 59 329 4.0 10.0 0.00 0.01 0.01 29 1013.8
20200327185023 58 320 3.0 10.0 0.00 0.01 0.01 28 1013.9